Regional Weather Roundup
Issued by NWS Upton, NY

Home | Current Version | Previous Version | Text Only | Print | Product List | Glossary On
Versions: 1 2 3 4 5 6 7 8 9 10 11 12 13 14 15 16 17 18 19 20 21 22 23 24 25 26 27
000
ASUS41 KOKX 201405
RWROKX

REGIONAL WEATHER ROUNDUP
NATIONAL WEATHER SERVICE NEW YORK NY
1000 AM EDT SUN APR 20 2014

NOTE: "FAIR" INDICATES FEW OR NO CLOUDS BELOW 12,000 FEET WITH NO
SIGNIFICANT WEATHER AND/OR OBSTRUCTIONS TO VISIBILITY.

NYZ071-072-176-178-NJZ106-104-201500-
NEW YORK CITY METRO AREA


CITY           SKY/WX    TMP DP  RH WIND       PRES   REMARKS
CENTRAL PARK   MOSUNNY   50  26  39 E12G17    30.52R
LAGUARDIA APRT PTSUNNY   49  28  44 NE10      30.49R
KENNEDY INTL   PTSUNNY   52  23  32 E16       30.50R
NEWARK/LIBERTY PTSUNNY   51  24  34 E9        30.49R
TETERBORO      MOSUNNY   52  24  33 E10G18    30.49R
$$

NYZ177-179-078>081-201500-
LONG ISLAND NEW YORK

CITY           SKY/WX    TMP DP  RH WIND       PRES   REMARKS
FARMINGDALE    MOSUNNY   49  25  39 E9        30.49R
ISLIP          PTSUNNY   51  25  36 E7G16     30.47S
SHIRLEY        MOSUNNY   51  24  34 VRB7      30.50R
WESTHAMPTON    MOSUNNY   50  22  33 E12G20    30.50S
MONTAUK POINT    N/A     48  30  49 NE9       30.52R
$$

NYZ052-065-067-201500-
HUDSON VALLEY

CITY           SKY/WX    TMP DP  RH WIND       PRES   REMARKS
WHITE PLAINS   MOSUNNY   49  20  31 SE15G23   30.48R
NEWBURGH       MOSUNNY   50  27  40 VRB7      30.50S
MONTGOMERY     SUNNY     50  22  33 E6        30.48S
POUGHKEEPSIE   SUNNY     51  22  31 VRB5      30.49S
ALBANY         MOSUNNY   49  26  41 SW5       30.51F
$$

NJZ001-105-106-008-010-013-015-019>022-104-201500-
NEW JERSEY

CITY           SKY/WX    TMP DP  RH WIND       PRES   REMARKS
NEWARK/LIBERTY PTSUNNY   51  24  34 E9        30.49R
TETERBORO      MOSUNNY   52  24  33 E10G18    30.49R
CALDWELL       MOSUNNY   50  25  37 SE13      30.49S
MORRISTOWN     MOSUNNY   52  25  35 E15       30.50R
SOMERVILLE     SUNNY     53  26  35 SE10      30.47R
LINDEN         FAIR      53  25  33 SE9       30.52R
SUSSEX         MOSUNNY   51  28  41 VRB3      30.47F
ANDOVER          N/A     50  25  37 MISG      30.47S
TRENTON        MOSUNNY   51  28  41 E10G23    30.47R
MILLVILLE      CLOUDY    52  32  46 E16G25    30.44R
ATLANTIC CITY  CLOUDY    50  34  54 E20G29    30.45R
WRIGHTSTOWN    PTSUNNY   49  29  45 E15G21    30.46R
TOMS RIVER     CLOUDY    48  30  49 NE9       30.48R
BELMAR         PTSUNNY   46  28  49 NE13G18   30.48R
$$

PAZ047>061-062-071-201500-
EASTERN PENNSYLVANIA

CITY           SKY/WX    TMP DP  RH WIND       PRES   REMARKS
PHILADELPHIA   PTSUNNY   50  27  40 E17       30.48R
ALLENTOWN      LGT RAIN  52  31  44 E12       30.46S
SCRANTON       SUNNY     51  28  41 VRB5      30.43S
$$

CTZ002-004>006-009-010-012-RIZ004-006-007-MAZ004-011-015-201500-
SOUTHERN NEW ENGLAND
 IN CT

CITY           SKY/WX    TMP DP  RH WIND       PRES   REMARKS
BRADLEY INTL   MOSUNNY   50  21  32 NE9       30.51R
HARTFORD       MOSUNNY   50  22  33 NE8       30.51S
DANBURY        MOSUNNY   48  23  37 E7        30.49F
WTRBRY/OXFORD  SUNNY     46  21  36 E9        30.51S
BRIDGEPORT     MOSUNNY   50  26  39 E13       30.50S
MERIDEN        MOSUNNY   50  23  34 CALM      30.50S
NEW HAVEN      PTSUNNY   51  26  37 SE12      30.49S
CHESTER        FAIR      48  18  29 NE9       30.49R
GROTON         SUNNY     50  21  32 E10       30.50R
WILLIMANTIC    MOSUNNY   49  16  26 NE13      30.50R

 IN RI

CITY           SKY/WX    TMP DP  RH WIND       PRES   REMARKS
PROVIDENCE     MOSUNNY   50  19  29 NE14      30.51S
BLOCK ISLAND   MOSUNNY   46  30  53 E12G18    30.51R
WESTERLY       SUNNY     50  19  29 NE9       30.50R

 IN MA

CITY           SKY/WX    TMP DP  RH WIND       PRES   REMARKS
BOSTON         MOSUNNY   46  26  45 E10       30.53R
WORCESTER      SUNNY     45  14  28 E10       30.48S
WESTFIELD      SUNNY     49  18  29 CALM      30.51S
PROVINCETOWN   SUNNY     45  30  57 MISG      30.51F
NANTUCKET      MOSUNNY   47  28  47 NE16G23   30.48R
$$

ANZ330-335-338-340-345-350-353-355-201500-
COASTAL MARINE OBSERVATIONS


STATION/POSITION TIME  SKY/WX   TEMP    WIND        PRES    VSBY  WAVE
                                AIR SEA DIR/SP/G                  HT/PER
                 (UTC)          (F)     (DEG/KT/KT) (MB)    (MI)  (FT/S)
NY HARB ENTRANCE 1400            45 44  300/ 14/ 17 1032.2
4S FIRE IS       1300               45                N/A           4/ 8
23SW MTP         1400            43 42   50/ 10/ 12 1032.2          3/ 8
HUDSON CANYON    1300            45 44   70/ 19/ 23 1030.0          5/ 5
EXECUTION ROCKS  1400            46 44   80/ 12/ 16   N/A
WESTERN LI SOUND 1400            45      80/ 12/ 14   N/A           2/ 3
CENTRAL LI SOUND 1300            44 42   70/  8/ 10   N/A           1
EASTERN LI SOUND NOT AVBL
ROBBINS REEF     1400            48      90/ 11/ 14   N/A
$$


>>>>>>>>>>>>>>>>>>>>>>>>>>>> KEY <<<<<<<<<<<<<<<<<<<<<<<<<<<
>                                                          <
>     SKY/WX - SKY CONDITION/PRESENT WEATHER               <
>     TMP    - TEMPERATURE IN FAHRENHEIT                   <
>     DP     - DEWPOINT IN FAHRENHEIT                      <
>     RH     - RELATIVE HUMIDITY IN PERCENT                <
>     WIND   - DIRECTION AND SPEED IN MPH                  <
>     PRES   - MEAN SEA LEVEL PRESSURE IN INCHES OF HG     <
>     WCI    - WIND CHILL INDEX                            <
>     VSB    - VISIBILITY IN MILES                         <
>     HX     - HEAT INDEX                                  <
>     TC     - TEMPERATURE IN CELSIUS                      <
>     VRB    - VARIABLE WIND DIRECTION                     <
>                                                          <
>>>>>>>>>>>>>>>>>>>>>>>>>>>> KEY <<<<<<<<<<<<<<<<<<<<<<<<<<<





USA.gov is the U.S. government's official web portal to all federal, state and local government web resources and services.